Regional Weather Roundup
Issued by NWS Sterling, VA

Home | Current Version | Previous Version | Text Only | Print | Product List | Glossary On
Versions: 1 2 3 4 5 6 7 8 9 10 11 12 13 14 15 16 17 18 19 20 21 22 23 24 25 26 27 28 29 30 31 32 33 34 35 36 37 38 39 40 41 42 43 44 45 46 47 48 49 50
000
ASUS41 KLWX 021110
RWRLWX

REGIONAL WEATHER ROUNDUP
NATIONAL WEATHER SERVICE BALTIMORE MD/WASHINGTON DC
700 AM EDT TUE SEP 02 2014

Note: "FAIR" indicates few or no clouds below 12,000 feet
with no significant weather and/or obstructions to visibility.
 TC=TEMPERATURE CELSIUS

 * =Non NWS site. Station does not report precipitation (e.g. rain,
    snow, etc.), thunder, or fog.

DCZ001-MDZ009-015-VAZ040>042-051-053>054-021200-
WASHINGTON METRO

CITY           SKY/WX    TMP DP  RH WIND       PRES   REMARKS
WASHINGTON NAT PTCLDY    78  70  76 SW5       29.97R
DULLES         PTCLDY    71  69  93 S5        29.98R
ANDREWS AFB    CLEAR     73  70  92 S6        29.98R
QUANTICO       PTCLDY    74  70  87 W3        29.98R
COLLEGE PARK*  CLEAR     72  72 100 CALM      29.96S
LEESBURG*      CLEAR     72  72 100 S3        29.99R
GAITHERSBURG*    N/A     70  68  94 CALM      30.02R VSB 3/4

$$

MDZ006>007-011-014-021200-
BALTIMORE METRO

CITY           SKY/WX    TMP DP  RH WIND       PRES   REMARKS
BWI AIRPORT    PTCLDY    73  72  96 CALM      29.96R
MD SCIENCE CTR   N/A     77  71  82 MISG      29.96R
MARTIN STATE   CLEAR     75  75 100 CALM      29.97R
ANNAPOLIS      CLEAR     76  71  85 CALM      29.96R
FORT MEADE*      N/A     68  66  94 CALM      29.99R

$$

MDZ012-015-019>023-021200-
MARYLAND EASTERN SHORE

CITY           SKY/WX    TMP DP  RH WIND       PRES   REMARKS
OCEAN CITY     CLEAR     77  73  87 W6        29.98R
SALISBURY      CLEAR     77  72  84 SW3       29.99R
BAY BRIDGE AP*   N/A     77  72  83 SW3       29.97R
CAMBRIDGE*     CLEAR     72  70  94 CALM      29.97
EASTON*        CLEAR     75  75 100 CALM      30.00R

$$

MDZ017>025-021200-
SOUTHERN MARYLAND

CITY           SKY/WX    TMP DP  RH WIND       PRES   REMARKS
PATUXENT RIVER PTCLDY    74  70  87 W5        29.98R
ST INIGOES     CLEAR     74  68  81 SW3       29.98R
LEONARDTOWN*   CLEAR     72  68  88 CALM      30.00R

$$

MDZ003>005-021200-
NORTH CENTRAL MARYLAND

CITY           SKY/WX    TMP DP  RH WIND       PRES   REMARKS
FREDERICK*     CLEAR    N/A N/A N/A VRB3      29.99R
HAGERSTOWN APT CLEAR     73  66  78 SW6       29.98R
WESTMINSTER*   CLEAR     73  70  88 SW7       29.98R

$$

MDZ501>502-021200-
WESTERN MARYLAND

CITY           SKY/WX    TMP DP  RH WIND       PRES   REMARKS
OAKLAND*       CLOUDY    66 N/A N/A W9G18     30.10S HAZE
CUMBERLAND*    PTCLDY    70  64  83 SW3       30.03R

$$

VAZ025>031-021200-
SHENANDOAH VALLEY

CITY           SKY/WX    TMP DP  RH WIND       PRES   REMARKS
WINCHESTER*    PTCLDY    72  64  78 S7        29.99R
STAUNTON*      PTCLDY    66  62  85 CALM      30.06S

$$

WVZ021-048>050-054>055-021200-
EASTERN WEST VIRGINIA PANHANDLE

CITY           SKY/WX    TMP DP  RH WIND       PRES   REMARKS
MARTINSBURG    CLEAR     70  64  81 S6        29.99R
PETERSBURG*    NOT AVBL

$$

VAZ036>039-050-021200-
CENTRAL FOOTHILLS

CITY           SKY/WX    TMP DP  RH WIND       PRES   REMARKS
CHARLOTTESVILL PTCLDY    71  67  87 VRB3      30.00S
ORANGE*        CLEAR     68  66  94 CALM      30.01S

$$

VAZ055>057-021200-
NORTH AND CENTRAL PIEDMONT

CITY           SKY/WX    TMP DP  RH WIND       PRES   REMARKS
FREDERICKSBRG* CLEAR     74  73  96 CALM      29.98R
STAFFORD*      CLEAR     69  69 100 CALM      30.02S

$$

NCZ024-NYZ072-PAZ021-071-VAZ022-071-021200-
OTHER REGIONAL OBSERVATIONS

CITY           SKY/WX    TMP DP  RH WIND       PRES   REMARKS
NEW YORK CITY  CLEAR     77  72  84 W5        29.94R
PHILADELPHIA   PTCLDY    76  71  85 SW9       29.95R
PITTSBURGH     MOCLDY    72  69  90 SW6       29.99R
ROANOKE        MOCLDY    73  65  75 W7        30.09R
RICHMOND       PTCLDY    75  69  81 SE5       30.01R
RALEIGH        PTCLDY    72  68  87 SW3       30.07R

$$

ANZ530>537-021200-
MARINE OBSERVATIONS

STATION/POSITION TIME  TEMP    WIND        PRES
                       AIR SEA DIR/SP/G
                 (UTC) (F)     (DEG/KT/KT) (MB)
THOMAS PT LIGHT  1100   78 79  250/  6/  7 1015.6R
BALT KEY BRIDGE  1100          250/  6/  7 1014.3R
COVE POINT       1100   78     260/ 11/ 12 1014.7S
LEWISETTA        1100   76 81  250/  8/  9 1014.9S
SOLOMONS ISLAND  1100      80                N/A
PINEY POINT      1100          270/  4/  5   N/A

$$



USA.gov is the U.S. government's official web portal to all federal, state and local government web resources and services.